User: anonymous   Login
Location: Notre Dame Regional High School Observatory
(37.3056°N, 89.6097°W)
Time: 21:19:28
(UTC-05:00)
Language:

ATLAS 3B R/B - Orbit

View from above orbital plane
View from above orbital plane
View from above satellite
View from above satellite

Ground track
Ground track

The orbit data is extracted from the following two-line orbital elements,

1 28538U 05004B   16091.81082822 0.00000000  00000-0  00000-0 0    06
2 28538  63.8228 331.9210 0176000 208.8310 151.1690 13.43079118    02
Epoch (UTC): 31 March 2016 19:27:35
Eccentricity: 0.0176000
inclination: 63.8228°
perigee height: 966 km
apogee height: 1229 km
right ascension of ascending node: 331.9210°
argument of perigee: 208.8310°
revolutions per day: 13.43079118
mean anomaly at epoch: 151.1690°
orbit number at epoch: 0

The dashed part of the orbit path shows where the satellite is in the earth's shadow,  

DLR